TimePDT,TemperatureF,Dew PointF,Humidity,Sea Level PressureIn,VisibilityMPH,Wind Direction,Wind SpeedMPH,Gust SpeedMPH,PrecipitationIn,Events,Conditions,WindDirDegrees,DateUTC
12:56 AM,37.9,34.0,86,30.25,10.0,SE,3.5,-,N/A,,Clear,140,2013-04-09 07:56:00
1:56 AM,37.0,33.1,86,30.26,10.0,Calm,Calm,-,N/A,,Clear,0,2013-04-09 08:56:00
2:56 AM,34.0,30.9,89,30.26,10.0,Calm,Calm,-,N/A,,Clear,0,2013-04-09 09:56:00
3:56 AM,35.1,30.0,82,30.28,10.0,Calm,Calm,-,N/A,,Clear,0,2013-04-09 10:56:00
4:56 AM,34.0,32.0,92,30.30,10.0,Calm,Calm,-,N/A,,Clear,0,2013-04-09 11:56:00
5:56 AM,32.0,28.9,88,30.32,10.0,Calm,Calm,-,N/A,,Clear,0,2013-04-09 12:56:00
6:56 AM,36.0,30.0,79,30.34,10.0,Calm,Calm,-,N/A,,Clear,0,2013-04-09 13:56:00
7:56 AM,37.9,32.0,79,30.36,10.0,East,3.5,-,N/A,,Clear,80,2013-04-09 14:56:00
8:56 AM,41.0,33.1,73,30.37,10.0,Calm,Calm,-,N/A,,Clear,0,2013-04-09 15:56:00
9:56 AM,45.0,33.1,63,30.36,10.0,Variable,3.5,-,N/A,,Clear,0,2013-04-09 16:56:00
10:56 AM,46.9,34.0,61,30.35,10.0,NE,3.5,-,N/A,,Clear,40,2013-04-09 17:56:00
11:56 AM,51.1,33.1,50,30.34,10.0,NNW,3.5,-,N/A,,Clear,340,2013-04-09 18:56:00
12:56 PM,52.0,30.0,43,30.33,10.0,Calm,Calm,-,N/A,,Clear,0,2013-04-09 19:56:00
1:56 PM,54.0,28.0,37,30.31,10.0,Calm,Calm,-,N/A,,Clear,0,2013-04-09 20:56:00
2:56 PM,57.0,30.9,37,30.29,10.0,Calm,Calm,-,N/A,,Clear,0,2013-04-09 21:56:00
3:56 PM,55.9,30.9,39,30.27,10.0,Calm,Calm,-,N/A,,Clear,0,2013-04-09 22:56:00
4:56 PM,59.0,32.0,36,30.26,10.0,Variable,4.6,-,N/A,,Clear,0,2013-04-09 23:56:00
5:56 PM,57.9,32.0,37,30.26,10.0,Variable,4.6,-,N/A,,Partly Cloudy,0,2013-04-10 00:56:00
6:56 PM,54.0,30.0,40,30.25,10.0,NW,3.5,-,N/A,,Clear,310,2013-04-10 01:56:00
7:56 PM,54.0,32.0,43,30.25,10.0,Calm,Calm,-,N/A,,Overcast,0,2013-04-10 02:56:00
8:56 PM,48.9,35.1,59,30.25,10.0,SSE,4.6,-,N/A,,Scattered Clouds,150,2013-04-10 03:56:00
9:56 PM,46.9,34.0,61,30.25,10.0,South,4.6,-,N/A,,Clear,190,2013-04-10 04:56:00
10:56 PM,46.0,34.0,63,30.25,10.0,SSE,4.6,-,N/A,,Scattered Clouds,160,2013-04-10 05:56:00
11:56 PM,46.9,34.0,61,30.24,10.0,Calm,Calm,-,N/A,,Overcast,0,2013-04-10 06:56:00